Time,TemperatureF,DewpointF,PressureIn,WindDirection,WindDirectionDegrees,WindSpeedMPH,WindSpeedGustMPH,Humidity,HourlyPrecipIn,Conditions,Clouds,dailyrainin,SoftwareType,DateUTC
2015-04-26 00:04:00,59.6,-99.9,29.60,South,174,0.0,-999.0,0,-99.99,,,0.00,weatherlink.com 1.10,2015-04-26 04:04:00,
2015-04-26 00:19:00,59.9,-99.9,29.60,South,174,0.0,-999.0,0,-99.99,,,0.00,weatherlink.com 1.10,2015-04-26 04:19:00,
2015-04-26 00:34:00,59.2,-99.9,29.61,ESE,102,0.0,-999.0,0,-99.99,,,0.00,weatherlink.com 1.10,2015-04-26 04:34:00,
2015-04-26 00:49:00,58.1,-99.9,29.61,ESE,106,0.0,-999.0,0,-99.99,,,0.00,weatherlink.com 1.10,2015-04-26 04:49:00,
2015-04-26 01:04:00,57.3,-99.9,29.61,ESE,106,0.0,-999.0,0,-99.99,,,0.00,weatherlink.com 1.10,2015-04-26 05:04:00,
2015-04-26 01:19:00,57.3,-99.9,29.60,ESE,106,0.0,-999.0,0,-99.99,,,0.00,weatherlink.com 1.10,2015-04-26 05:19:00,
2015-04-26 01:34:00,56.9,-99.9,29.60,ESE,106,1.0,-999.0,0,-99.99,,,0.00,weatherlink.com 1.10,2015-04-26 05:34:00,
2015-04-26 01:49:00,56.4,-99.9,29.60,ESE,106,0.0,-999.0,0,-99.99,,,0.00,weatherlink.com 1.10,2015-04-26 05:49:00,
2015-04-26 02:04:00,56.9,-99.9,29.58,ESE,106,0.0,-999.0,0,-99.99,,,0.00,weatherlink.com 1.10,2015-04-26 06:04:00,
2015-04-26 02:19:00,58.5,-99.9,29.59,ESE,106,0.0,-999.0,0,-99.99,,,0.00,weatherlink.com 1.10,2015-04-26 06:19:00,
2015-04-26 02:34:00,58.7,-99.9,29.62,East,84,0.0,-999.0,0,-99.99,,,0.00,weatherlink.com 1.10,2015-04-26 06:34:00,
2015-04-26 02:49:00,58.8,-99.9,29.62,ESE,120,0.0,-999.0,0,-99.99,,,0.00,weatherlink.com 1.10,2015-04-26 06:49:00,
2015-04-26 03:04:00,58.6,-99.9,29.61,SE,140,0.0,-999.0,0,-99.99,,,0.00,weatherlink.com 1.10,2015-04-26 07:04:00,
2015-04-26 03:19:00,58.5,-99.9,29.61,SE,140,0.0,-999.0,0,-99.99,,,0.00,weatherlink.com 1.10,2015-04-26 07:19:00,
2015-04-26 03:34:00,58.3,-99.9,29.60,SE,140,0.0,-999.0,0,-99.99,,,0.00,weatherlink.com 1.10,2015-04-26 07:34:00,
2015-04-26 03:49:00,58.2,-99.9,29.61,SE,140,0.0,-999.0,0,-99.99,,,0.00,weatherlink.com 1.10,2015-04-26 07:49:00,
2015-04-26 04:04:00,58.2,-99.9,29.60,SE,140,0.0,-999.0,0,-99.99,,,0.00,weatherlink.com 1.10,2015-04-26 08:04:00,
2015-04-26 04:19:00,58.0,-99.9,29.60,SE,140,0.0,-999.0,0,-99.99,,,0.00,weatherlink.com 1.10,2015-04-26 08:19:00,
2015-04-26 04:34:00,57.7,-99.9,29.60,SE,140,0.0,-999.0,0,-99.99,,,0.00,weatherlink.com 1.10,2015-04-26 08:34:00,
2015-04-26 04:49:00,57.5,-99.9,29.61,SE,140,0.0,-999.0,0,-99.99,,,0.00,weatherlink.com 1.10,2015-04-26 08:49:00,
2015-04-26 05:04:00,57.5,-99.9,29.61,SE,140,0.0,-999.0,0,-99.99,,,0.00,weatherlink.com 1.10,2015-04-26 09:04:00,
2015-04-26 05:19:00,57.4,-99.9,29.60,SE,140,0.0,-999.0,0,-99.99,,,0.00,weatherlink.com 1.10,2015-04-26 09:19:00,
2015-04-26 05:34:00,57.3,-99.9,29.59,SE,140,0.0,-999.0,0,-99.99,,,0.00,weatherlink.com 1.10,2015-04-26 09:34:00,
2015-04-26 05:49:00,57.0,-99.9,29.60,SE,140,0.0,-999.0,0,-99.99,,,0.00,weatherlink.com 1.10,2015-04-26 09:49:00,
2015-04-26 06:04:00,56.6,-99.9,29.60,SE,140,0.0,-999.0,0,-99.99,,,0.00,weatherlink.com 1.10,2015-04-26 10:04:00,
2015-04-26 06:19:00,56.3,-99.9,29.60,SE,140,0.0,-999.0,0,-99.99,,,0.00,weatherlink.com 1.10,2015-04-26 10:19:00,
2015-04-26 06:34:00,55.9,-99.9,29.60,SE,140,0.0,-999.0,0,-99.99,,,0.00,weatherlink.com 1.10,2015-04-26 10:34:00,
2015-04-26 06:49:00,55.6,-99.9,29.60,SE,140,0.0,-999.0,0,-99.99,,,0.00,weatherlink.com 1.10,2015-04-26 10:49:00,
2015-04-26 07:04:00,55.4,-99.9,29.60,SE,140,0.0,-999.0,0,-99.99,,,0.00,weatherlink.com 1.10,2015-04-26 11:04:00,
2015-04-26 07:19:00,55.3,-99.9,29.61,SE,140,0.0,-999.0,0,-99.99,,,0.00,weatherlink.com 1.10,2015-04-26 11:19:00,
2015-04-26 07:34:00,55.5,-99.9,29.62,SE,140,0.0,-999.0,0,-99.99,,,0.00,weatherlink.com 1.10,2015-04-26 11:34:00,
2015-04-26 07:49:00,55.8,-99.9,29.63,SE,140,0.0,-999.0,0,-99.99,,,0.00,weatherlink.com 1.10,2015-04-26 11:49:00,
2015-04-26 08:04:00,56.3,-99.9,29.63,SE,140,0.0,-999.0,0,-99.99,,,0.00,weatherlink.com 1.10,2015-04-26 12:04:00,
2015-04-26 08:19:00,57.1,-99.9,29.64,SE,140,0.0,-999.0,0,-99.99,,,0.00,weatherlink.com 1.10,2015-04-26 12:19:00,